Location: Arcizac
(43.0933°N, 0.0112°E)
Time: 20:17:01
(UTC+00:00)

Cosmos 1782 Rocket - Pass Details

Date: 14 December 2019
Orbit: 607 x 632 km, 82.5° (Epoch: 26 January)

Event Time Altitude Azimuth Distance (km) Brightness Sun altitude
Rises 17:49:05 0° 350° (N) 2,880 6.9 -14.7°
Reaches altitude 10° 17:51:19 10° 349° (N) 1,969 6.1 -15.1°
Maximum altitude 17:55:40 78° 263° (W) 626 3.6 -15.8°
Drops below altitude 10° 17:59:58 10° 178° (S) 1,951 6.3 -16.6°
Sets 18:02:11 0° 177° (S) 2,851 7.1 -17.0°
